Regional Weather Roundup
Issued by NWS Goodland, KS

Home | Current Version | Previous Version | Text Only | Print | Product List | Glossary Off
Versions: 1 2 3 4 5 6 7 8 9 10 11 12 13 14 15 16 17 18 19 20 21 22 23 24 25 26 27 28 29 30 31 32 33 34 35 36 37 38 39 40 41 42 43 44 45 46 47 48 49 50

000
ASUS43 KGLD 012259
RWRGLD

GOODLAND FORECAST AREA HOURLY WEATHER ROUNDUP
NATIONAL WEATHER SERVICE GOODLAND KS
500 PM MDT WED OCT 01 2014

...OFFICIAL OBSERVATIONS...

CITY           SKY/WX    TMP DP  RH WIND       PRES   REMARKS
GOODLAND KS    MOSUNNY   73  39  29 S3        29.79S
HILL CITY KS   MOSUNNY   80  48  32 E7        29.73S
IMPERIAL NEB   SUNNY     73  40  30 E3        29.78S
MCCOOK NEB     SUNNY     76  43  30 S5        29.75S
AKRON CO       PTSUNNY   64  43  46 E9        29.80F
BURLINGTON CO  PTSUNNY   72  37  28 SE7       29.80F
LIMON CO       CLOUDY    65  34  31 S13       29.84R
$$

...UNOFFICIAL OBSERVATIONS...

CITY           SKY/WX    TMP DP  RH WIND       PRES   REMARKS
COLBY KS       MOSUNNY   75  46  35 SE5       29.78S
GOVE KS          N/A     78  32  18 MISG        N/A
NORTON KS      PTSUNNY   79  36  21 CALM      29.72S
SHARON SPRINGS   N/A     77  42  28 CALM        N/A
TRENTON NEB      N/A     76  32  20 CALM        N/A
KIT CARSON CO    N/A     71  40  32 MISG        N/A
YUMA CO          N/A     68  41  36 E7          N/A
$$


USA.gov is the U.S. government's official web portal to all federal, state and local government web resources and services.